Time,TemperatureF,DewpointF,PressureIn,WindDirection,WindDirectionDegrees,WindSpeedMPH,WindSpeedGustMPH,Humidity,HourlyPrecipIn,Conditions,Clouds,dailyrainin,SoftwareType,DateUTC
2013-12-11 00:00:00,25.8,12.0,30.26,ESE,122,3.0,8.0,56,0.00,,,0.00,weatherlink.com 1.10,2013-12-11 07:00:00,
2013-12-11 00:15:00,25.1,12.0,30.26,SE,129,1.0,7.0,57,0.00,,,0.00,weatherlink.com 1.10,2013-12-11 07:15:00,
2013-12-11 00:30:00,23.6,11.0,30.26,SE,133,10.0,14.0,60,0.00,,,0.00,weatherlink.com 1.10,2013-12-11 07:30:00,
2013-12-11 00:45:00,23.2,12.0,30.27,ESE,117,9.0,16.0,62,0.00,,,0.00,weatherlink.com 1.10,2013-12-11 07:45:00,
2013-12-11 01:00:00,22.4,11.0,30.28,ESE,113,8.0,11.0,62,0.00,,,0.00,weatherlink.com 1.10,2013-12-11 08:00:00,
2013-12-11 01:15:00,21.4,11.0,30.28,SE,130,4.0,7.0,64,0.00,,,0.00,weatherlink.com 1.10,2013-12-11 08:15:00,
2013-12-11 01:30:00,21.1,11.0,30.29,ESE,109,2.0,7.0,65,0.00,,,0.00,weatherlink.com 1.10,2013-12-11 08:30:00,
2013-12-11 01:45:00,21.4,11.0,30.30,ESE,114,5.0,5.0,64,0.00,,,0.00,weatherlink.com 1.10,2013-12-11 08:45:00,
2013-12-11 02:00:00,21.0,11.0,30.30,SE,130,5.0,7.0,65,0.00,,,0.00,weatherlink.com 1.10,2013-12-11 09:00:00,
2013-12-11 02:15:00,19.9,11.0,30.31,SE,140,1.0,5.0,68,0.00,,,0.00,weatherlink.com 1.10,2013-12-11 09:15:00,
2013-12-11 02:30:00,19.9,11.0,30.32,SSW,207,1.0,4.0,68,0.00,,,0.00,weatherlink.com 1.10,2013-12-11 09:30:00,
2013-12-11 02:45:00,20.3,11.0,30.31,SSW,207,4.0,4.0,66,0.00,,,0.00,weatherlink.com 1.10,2013-12-11 09:45:00,
2013-12-11 03:00:00,20.2,10.0,30.31,SSW,207,3.0,4.0,66,0.00,,,0.00,weatherlink.com 1.10,2013-12-11 10:00:00,
2013-12-11 03:15:00,19.1,10.0,30.31,SSW,207,1.0,5.0,68,0.00,,,0.00,weatherlink.com 1.10,2013-12-11 10:15:00,
2013-12-11 03:30:00,19.2,11.0,30.31,SSW,207,2.0,4.0,69,0.00,,,0.00,weatherlink.com 1.10,2013-12-11 10:30:00,
2013-12-11 03:45:00,18.6,10.0,30.31,SSE,165,0.0,5.0,69,0.00,,,0.00,weatherlink.com 1.10,2013-12-11 10:45:00,
2013-12-11 04:00:00,18.3,11.0,30.30,SSE,165,3.0,4.0,72,0.00,,,0.00,weatherlink.com 1.10,2013-12-11 11:00:00,
2013-12-11 04:15:00,17.2,9.0,30.31,SSE,165,3.0,4.0,70,0.00,,,0.00,weatherlink.com 1.10,2013-12-11 11:15:00,
2013-12-11 04:30:00,17.0,10.0,30.31,SSE,165,0.0,3.0,75,0.00,,,0.00,weatherlink.com 1.10,2013-12-11 11:30:00,
2013-12-11 04:45:00,17.5,11.0,30.31,ENE,61,5.0,7.0,74,0.00,,,0.00,weatherlink.com 1.10,2013-12-11 11:45:00,
2013-12-11 05:00:00,14.8,8.0,30.31,ENE,59,3.0,5.0,74,0.00,,,0.00,weatherlink.com 1.10,2013-12-11 12:00:00,
2013-12-11 05:15:00,14.0,8.0,30.32,ENE,59,2.0,3.0,76,0.00,,,0.00,weatherlink.com 1.10,2013-12-11 12:15:00,
2013-12-11 05:30:00,15.7,10.0,30.32,ENE,59,0.0,3.0,79,0.00,,,0.00,weatherlink.com 1.10,2013-12-11 12:30:00,
2013-12-11 05:45:00,16.4,11.0,30.32,ENE,67,3.0,3.0,78,0.00,,,0.00,weatherlink.com 1.10,2013-12-11 12:45:00,
2013-12-11 06:01:00,16.2,11.0,30.31,SW,217,1.0,4.0,78,0.00,,,0.00,weatherlink.com 1.10,2013-12-11 13:01:00,
2013-12-11 06:16:00,15.4,10.0,30.33,SW,236,5.0,5.0,78,0.00,,,0.00,weatherlink.com 1.10,2013-12-11 13:16:00,
2013-12-11 06:31:00,15.1,9.0,30.33,SW,234,3.0,4.0,75,0.00,,,0.00,weatherlink.com 1.10,2013-12-11 13:31:00,
2013-12-11 06:46:00,13.8,8.0,30.33,SW,235,3.0,5.0,78,0.00,,,0.00,weatherlink.com 1.10,2013-12-11 13:46:00,
2013-12-11 07:01:00,13.8,9.0,30.33,SW,235,2.0,4.0,80,0.00,,,0.00,weatherlink.com 1.10,2013-12-11 14:01:00,
2013-12-11 07:16:00,15.2,10.0,30.33,SW,235,3.0,4.0,80,0.00,,,0.00,weatherlink.com 1.10,2013-12-11 14:16:00,
2013-12-11 07:31:00,14.8,8.0,30.34,East,80,6.0,6.0,73,0.00,,,0.00,weatherlink.com 1.10,2013-12-11 14:31:00,
2013-12-11 07:46:00,13.8,8.0,30.35,East,80,1.0,2.0,77,0.00,,,0.00,weatherlink.com 1.10,2013-12-11 14:46:00,
2013-12-11 08:01:00,12.9,7.0,30.35,East,80,1.0,4.0,78,0.00,,,0.00,weatherlink.com 1.10,2013-12-11 15:01:00,
2013-12-11 08:16:00,14.0,9.0,30.36,ENE,62,2.0,3.0,80,0.00,,,0.00,weatherlink.com 1.10,2013-12-11 15:16:00,
2013-12-11 08:31:00,18.0,13.0,30.36,ENE,62,0.0,3.0,80,0.00,,,0.00,weatherlink.com 1.10,2013-12-11 15:31:00,
2013-12-11 08:46:00,21.0,14.0,30.35,ENE,62,4.0,4.0,74,0.00,,,0.00,weatherlink.com 1.10,2013-12-11 15:46:00,
2013-12-11 09:01:00,22.1,12.0,30.36,North,10,3.0,5.0,65,0.00,,,0.00,weatherlink.com 1.10,2013-12-11 16:01:00,
2013-12-11 09:16:00,22.1,12.0,30.37,NE,44,5.0,7.0,65,0.00,,,0.00,weatherlink.com 1.10,2013-12-11 16:16:00,
2013-12-11 09:31:00,21.1,12.0,30.37,ENE,65,7.0,9.0,69,0.00,,,0.00,weatherlink.com 1.10,2013-12-11 16:31:00,
2013-12-11 09:46:00,22.7,13.0,30.37,North,10,5.0,8.0,67,0.00,,,0.00,weatherlink.com 1.10,2013-12-11 16:46:00,
2013-12-11 10:01:00,24.7,14.0,30.38,North,350,5.0,7.0,63,0.00,,,0.00,weatherlink.com 1.10,2013-12-11 17:01:00,
2013-12-11 10:16:00,25.6,14.0,30.39,NNE,17,5.0,7.0,61,0.00,,,0.00,weatherlink.com 1.10,2013-12-11 17:16:00,
2013-12-11 10:31:00,26.4,14.0,30.38,NNE,32,5.0,7.0,60,0.00,,,0.00,weatherlink.com 1.10,2013-12-11 17:31:00,
2013-12-11 10:46:00,26.1,14.0,30.36,ENE,76,2.0,5.0,61,0.00,,,0.00,weatherlink.com 1.10,2013-12-11 17:46:00,
2013-12-11 11:01:00,27.3,15.0,30.36,ENE,76,0.0,2.0,60,0.00,,,0.00,weatherlink.com 1.10,2013-12-11 18:01:00,
2013-12-11 11:16:00,30.1,15.0,30.35,NNE,21,3.0,6.0,53,0.00,,,0.00,weatherlink.com 1.10,2013-12-11 18:16:00,
2013-12-11 11:31:00,28.2,15.0,30.34,ESE,108,2.0,4.0,58,0.00,,,0.00,weatherlink.com 1.10,2013-12-11 18:31:00,
2013-12-11 11:46:00,30.4,15.0,30.34,North,5,5.0,7.0,52,0.00,,,0.00,weatherlink.com 1.10,2013-12-11 18:46:00,
2013-12-11 12:01:00,30.4,15.0,30.33,NNE,28,6.0,9.0,52,0.00,,,0.00,weatherlink.com 1.10,2013-12-11 19:01:00,
2013-12-11 12:16:00,29.0,15.0,30.33,North,10,10.0,10.0,56,0.00,,,0.00,weatherlink.com 1.10,2013-12-11 19:16:00,
2013-12-11 12:31:00,27.2,15.0,30.33,NE,41,6.0,12.0,60,0.00,,,0.00,weatherlink.com 1.10,2013-12-11 19:31:00,
2013-12-11 12:46:00,27.3,15.0,30.33,NNE,15,6.0,11.0,61,0.00,,,0.00,weatherlink.com 1.10,2013-12-11 19:46:00,
2013-12-11 13:01:00,28.1,15.0,30.34,NNE,16,3.0,10.0,59,0.00,,,0.00,weatherlink.com 1.10,2013-12-11 20:01:00,
2013-12-11 13:16:00,28.5,16.0,30.33,North,360,5.0,9.0,60,0.00,,,0.00,weatherlink.com 1.10,2013-12-11 20:16:00,
2013-12-11 13:31:00,29.5,16.0,30.33,NNE,13,4.0,7.0,57,0.00,,,0.00,weatherlink.com 1.10,2013-12-11 20:31:00,
2013-12-11 13:46:00,29.3,16.0,30.33,ENE,64,3.0,7.0,58,0.00,,,0.00,weatherlink.com 1.10,2013-12-11 20:46:00,
2013-12-11 14:01:00,30.4,16.0,30.32,North,355,6.0,9.0,55,0.00,,,0.00,weatherlink.com 1.10,2013-12-11 21:01:00,
2013-12-11 14:16:00,30.6,15.0,30.32,NE,38,5.0,6.0,53,0.00,,,0.00,weatherlink.com 1.10,2013-12-11 21:16:00,
2013-12-11 14:32:00,32.7,15.0,30.32,NNW,346,0.0,6.0,49,0.00,,,0.00,weatherlink.com 1.10,2013-12-11 21:32:00,
2013-12-11 14:47:00,30.4,15.0,30.32,ENE,69,4.0,7.0,52,0.00,,,0.00,weatherlink.com 1.10,2013-12-11 21:47:00,
2013-12-11 15:02:00,30.6,15.0,30.33,NE,51,4.0,7.0,53,0.00,,,0.00,weatherlink.com 1.10,2013-12-11 22:02:00,
2013-12-11 15:17:00,29.8,14.0,30.33,ENE,76,1.0,4.0,53,0.00,,,0.00,weatherlink.com 1.10,2013-12-11 22:17:00,
2013-12-11 15:32:00,30.7,14.0,30.34,ENE,74,4.0,4.0,51,0.00,,,0.00,weatherlink.com 1.10,2013-12-11 22:32:00,
2013-12-11 15:47:00,29.8,14.0,30.34,ENE,74,1.0,3.0,51,0.00,,,0.00,weatherlink.com 1.10,2013-12-11 22:47:00,
2013-12-11 16:02:00,29.4,14.0,30.34,ENE,74,2.0,4.0,54,0.00,,,0.00,weatherlink.com 1.10,2013-12-11 23:02:00,
2013-12-11 16:17:00,30.6,15.0,30.35,ENE,74,0.0,5.0,52,0.00,,,0.00,weatherlink.com 1.10,2013-12-11 23:17:00,
2013-12-11 16:32:00,28.7,14.0,30.35,ENE,74,2.0,3.0,55,0.00,,,0.00,weatherlink.com 1.10,2013-12-11 23:32:00,
2013-12-11 16:47:00,25.8,14.0,30.36,ENE,74,0.0,3.0,62,0.00,,,0.00,weatherlink.com 1.10,2013-12-11 23:47:00,
2013-12-11 17:02:00,24.1,14.0,30.36,East,93,0.0,2.0,66,0.00,,,0.00,weatherlink.com 1.10,2013-12-12 00:02:00,
2013-12-11 17:17:00,23.3,14.0,30.38,South,186,1.0,4.0,68,0.00,,,0.00,weatherlink.com 1.10,2013-12-12 00:17:00,
2013-12-11 17:32:00,23.0,14.0,30.38,South,186,3.0,4.0,69,0.00,,,0.00,weatherlink.com 1.10,2013-12-12 00:32:00,
2013-12-11 17:47:00,23.0,14.0,30.38,SW,233,2.0,5.0,69,0.00,,,0.00,weatherlink.com 1.10,2013-12-12 00:47:00,
2013-12-11 18:02:00,21.0,13.0,30.39,SSE,162,0.0,3.0,71,0.00,,,0.00,weatherlink.com 1.10,2013-12-12 01:02:00,
2013-12-11 18:17:00,21.1,14.0,30.39,SSE,162,2.0,3.0,73,0.00,,,0.00,weatherlink.com 1.10,2013-12-12 01:17:00,
2013-12-11 18:32:00,20.5,13.0,30.39,SSE,162,2.0,3.0,73,0.00,,,0.00,weatherlink.com 1.10,2013-12-12 01:32:00,
2013-12-11 18:47:00,19.9,13.0,30.39,SW,220,2.0,6.0,75,0.00,,,0.00,weatherlink.com 1.10,2013-12-12 01:47:00,
2013-12-11 19:02:00,18.6,13.0,30.39,SW,220,5.0,5.0,78,0.00,,,0.00,weatherlink.com 1.10,2013-12-12 02:02:00,
2013-12-11 19:17:00,19.2,14.0,30.40,SW,220,3.0,6.0,80,0.00,,,0.00,weatherlink.com 1.10,2013-12-12 02:17:00,
2013-12-11 19:32:00,18.8,13.0,30.40,SW,220,2.0,4.0,79,0.00,,,0.00,weatherlink.com 1.10,2013-12-12 02:32:00,
2013-12-11 19:47:00,18.9,13.0,30.40,WSW,246,1.0,6.0,79,0.00,,,0.00,weatherlink.com 1.10,2013-12-12 02:47:00,
2013-12-11 20:02:00,18.8,13.0,30.40,WSW,253,5.0,7.0,79,0.00,,,0.00,weatherlink.com 1.10,2013-12-12 03:02:00,
2013-12-11 20:17:00,18.8,13.0,30.41,WNW,292,3.0,6.0,78,0.00,,,0.00,weatherlink.com 1.10,2013-12-12 03:17:00,
2013-12-11 20:32:00,17.7,12.0,30.41,East,85,0.0,6.0,77,0.00,,,0.00,weatherlink.com 1.10,2013-12-12 03:32:00,
2013-12-11 20:47:00,15.9,11.0,30.41,SE,130,3.0,5.0,79,0.00,,,0.00,weatherlink.com 1.10,2013-12-12 03:47:00,
2013-12-11 21:02:00,15.7,12.0,30.42,SSW,194,4.0,4.0,84,0.00,,,0.00,weatherlink.com 1.10,2013-12-12 04:02:00,
2013-12-11 21:17:00,17.0,13.0,30.42,SW,217,1.0,6.0,85,0.00,,,0.00,weatherlink.com 1.10,2013-12-12 04:17:00,
2013-12-11 21:32:00,17.0,12.0,30.43,SW,216,0.0,4.0,82,0.00,,,0.00,weatherlink.com 1.10,2013-12-12 04:32:00,
2013-12-11 21:47:00,15.6,12.0,30.44,SW,216,0.0,4.0,84,0.00,,,0.00,weatherlink.com 1.10,2013-12-12 04:47:00,
2013-12-11 22:02:00,16.1,12.0,30.44,SW,217,3.0,6.0,85,0.00,,,0.00,weatherlink.com 1.10,2013-12-12 05:02:00,
2013-12-11 22:17:00,16.2,13.0,30.44,SW,229,3.0,7.0,85,0.00,,,0.00,weatherlink.com 1.10,2013-12-12 05:17:00,
2013-12-11 22:32:00,17.7,13.0,30.45,SW,224,1.0,6.0,82,0.00,,,0.00,weatherlink.com 1.10,2013-12-12 05:32:00,
2013-12-11 22:47:00,17.8,14.0,30.45,SW,224,3.0,5.0,83,0.00,,,0.00,weatherlink.com 1.10,2013-12-12 05:47:00,
2013-12-11 23:02:00,18.8,14.0,30.45,SW,226,0.0,7.0,82,0.00,,,0.00,weatherlink.com 1.10,2013-12-12 06:02:00,
2013-12-11 23:17:00,18.1,13.0,30.45,SSW,209,5.0,6.0,80,0.00,,,0.00,weatherlink.com 1.10,2013-12-12 06:17:00,
2013-12-11 23:32:00,19.1,14.0,30.45,SSW,209,2.0,4.0,81,0.00,,,0.00,weatherlink.com 1.10,2013-12-12 06:32:00,
2013-12-11 23:47:00,17.2,12.0,30.44,SSW,209,3.0,4.0,81,0.00,,,0.00,weatherlink.com 1.10,2013-12-12 06:47:00,